{"data":{"norad_id":68278,"intl_designator":"2026-055S","name":"STARLINK-36982","alt_names":[],"object_type":"PAYLOAD","status":"ACTIVE","operator":null,"country":"US","launch_date":"2026-03-19","launch_site_code":"AFETR","launch_vehicle":null,"mission":null,"orbit_class":"UNKNOWN","rcs_meters":null,"size_class":null,"mass_kg":null,"dimensions":null,"purposes":["comms"],"wikipedia_slug":null,"has_3d_model":false,"image_url":null,"decayed_at":null,"tle_current":{"epoch":"2026-09-19T22:18:10.179072Z","epoch_age_seconds":101007,"freshness":"FRESH","line1":"1 68278U 26055S   26262.92928448  .00024075  00000+0  72140-3 0  9997","line2":"2 68278  53.1569 132.5261 0001335  92.8109 267.3047 15.34398656 29733","mean_motion":15.34398656,"eccentricity":0.0001335,"inclination_deg":53.1569,"raan_deg":132.5261,"arg_perigee_deg":92.8109,"mean_anomaly_deg":267.3047,"bstar":0.0007214,"rev_number":2973,"period_min":93.847840283823,"perigee_km":461.7939821559,"apogee_km":463.62048756661,"semimajor_km":6840.8442348613,"source":"CELESTRAK","updated_at":"2026-09-20T09:00:43.849365Z"}}}